Location: Unspecified
(0.0000°N, 0.0000°E)
Time: 01:25:03
(UTC+00:00)

Vanguard 3 - Pass Details

Date: 27 November 2019
Orbit: 508 x 3263 km, 33.3° (Epoch: 11 December)

Event Time Altitude Azimuth Distance (km) Brightness Sun altitude
Rises 18:01:52 0° 314° (NW) 7,085 12.3 -3.3°
Reaches altitude 10° 18:07:20 10° 319° (NW) 5,843 11.8 -4.6°
Maximum altitude 18:23:18 48° 29° (NNE) 2,641 9.4 -8.3°
Drops below altitude 10° 18:32:53 10° 100° (E) 3,636 10.0 -10.5°
Enters shadow 18:34:18 - 104° (ESE) 4,003 10.2 -10.9°
